Sharm El Sheikh, Egypt

12:33 AM EET on January 20, 2017 (GMT +0200)
Sharm El Sheikh

Weather History for HESH - November, 2012

Change the Weather History Date:

Tuesday, November 6, 2012

  Actual Average (HEGN) Record (HEGN)
Temperature  
Mean Temperature 86 °F -  
Max Temperature 93 °F 80 °F 93 °F (2013)
Min Temperature 78 °F 64 °F 59 °F (2006)
Cooling Degree Days 20    
Growing Degree Days 36 (Base 50)    
Moisture  
Dew Point 56 °F    
Average Humidity 40    
Maximum Humidity 57    
Minimum Humidity 19    
Precipitation  
Precipitation 0.00 in 0.00 in - ()
Sea Level Pressure  
Sea Level Pressure 29.88 in    
Wind  
Wind Speed 6 mph ()    
Max Wind Speed 13 mph    
Max Gust Speed -    
Visibility 6.2 miles    
Events      
Averages and records for this station are not official NWS values.
T = Trace of Precipitation, MM = Missing Value Source: Averaged Metar Reports

Daily Weather History Graph

Daily Weather History Graph

Search for Another Location

Airport or City:

Trip Planner

Search our weather history database for the weather conditions in past years. The results will help you decide how hot, cold, wet, or windy it might be!

Date:

Astronomy

Nov. 06, 2012 Rise Set
Actual Time 5:57 AM EET 4:54 PM EET
Civil Twilight 5:32 AM EET 5:18 PM EET
Nautical Twilight 5:04 AM EET 5:46 PM EET
Astronomical Twilight 4:37 AM EET 6:14 PM EET
Moon 11:07 PM EET (11/6) 11:40 AM EET (11/6)
Length of Visible Light 11h 46m
Length of Day
10h 57m
Waning Gibbous, 56% of the Moon is Illuminated
Nov 6
Waning Gibbous
Nov 7
Last Quarter
Nov 14
New
Nov 20
First Quarter
Nov 28
Full

Hourly Weather History & Observations

Time (EET) Temp. Heat Index Dew Point Humidity Pressure Visibility Wind Dir Wind Speed Gust Speed Precip Events Conditions
12:00 AM 78.8 °F - 51.8 °F 39% 29.86 in 6.2 mi Calm Calm - N/A   Mostly Cloudy
1:00 AM 78.8 °F - 55.4 °F 44% 29.86 in 6.2 mi North 6.9 mph - N/A   Mostly Cloudy
2:00 AM 78.8 °F - 55.4 °F 44% 29.86 in 6.2 mi North 6.9 mph - N/A   Mostly Cloudy
3:00 AM 78.8 °F - 62.6 °F 57% 29.86 in 6.2 mi North 10.4 mph - N/A   Mostly Cloudy
4:00 AM 78.8 °F - 62.6 °F 57% 29.83 in 6.2 mi North 11.5 mph - N/A   Mostly Cloudy
5:00 AM 78.8 °F - 62.6 °F 57% 29.83 in 6.2 mi North 12.7 mph - N/A   Mostly Cloudy
6:00 AM 78.8 °F - 62.6 °F 57% 29.86 in 6.2 mi North 11.5 mph - N/A   Mostly Cloudy
7:00 AM 78.8 °F - 62.6 °F 57% 29.86 in 6.2 mi North 11.5 mph - N/A   Mostly Cloudy
8:00 AM 84.2 °F 85.0 °F 62.6 °F 48% 29.89 in 6.2 mi North 11.5 mph - N/A   Mostly Cloudy
9:00 AM 87.8 °F 87.6 °F 60.8 °F 40% 29.89 in 6.2 mi North 6.9 mph - N/A   Scattered Clouds
10:00 AM 89.6 °F 88.1 °F 57.2 °F 33% 29.92 in 6.2 mi SSW 6.9 mph - N/A   Mostly Cloudy
11:00 AM 91.4 °F 89.1 °F 53.6 °F 28% 29.89 in 6.2 mi South 5.8 mph - N/A   Scattered Clouds
12:00 PM 93.2 °F - 44.6 °F 19% 29.86 in 6.2 mi Variable 3.5 mph - N/A   Mostly Cloudy
1:00 PM 89.6 °F 89.5 °F 60.8 °F 38% 29.86 in 6.2 mi NNE 6.9 mph - N/A   Mostly Cloudy
2:00 PM 87.8 °F 87.6 °F 60.8 °F 40% 29.86 in 6.2 mi NNE 5.8 mph - N/A   Mostly Cloudy
3:00 PM 86.0 °F 84.9 °F 57.2 °F 37% 29.86 in 6.2 mi NNE 9.2 mph - N/A   Mostly Cloudy
4:00 PM 86.0 °F 84.2 °F 53.6 °F 33% 29.86 in 6.2 mi North 11.5 mph - N/A   Mostly Cloudy
5:00 PM 84.2 °F - 50.0 °F 30% 29.89 in 6.2 mi Variable 3.5 mph - N/A   Mostly Cloudy
6:00 PM 82.4 °F 82.9 °F 60.8 °F 48% 29.89 in 6.2 mi NW 3.5 mph - N/A   Mostly Cloudy
7:00 PM 82.4 °F 81.7 °F 55.4 °F 39% 29.89 in 6.2 mi NW 4.6 mph - N/A   Mostly Cloudy
8:00 PM 84.2 °F - 48.2 °F 29% 29.92 in 6.2 mi North 3.5 mph - N/A   Mostly Cloudy
9:00 PM 84.2 °F - 48.2 °F 29% 29.92 in 6.2 mi NW 4.6 mph - N/A   Mostly Cloudy
10:00 PM 82.4 °F - 48.2 °F 30% 29.89 in 6.2 mi NE 2.3 mph - N/A   Mostly Cloudy
11:00 PM 82.4 °F - 51.8 °F 35% 29.92 in 6.2 mi NNE 3.5 mph - N/A   Mostly Cloudy